Location: Haulchin
(50.3172°N, 3.4360°E)
Time: 13:47:15
(UTC+00:00)

USA 234 - Pass Details

Date: 23 May 2024
Orbit: 1100 x 1107 km, 123.0° (Epoch: 16 June)

Event Time Altitude Azimuth Distance (km) Brightness Sun altitude
Exits shadow 00:56:34 12° 153° (SSE) 2,777 5.0 -17.2°
Maximum altitude 01:02:18 47° 224° (SW) 1,434 3.5 -16.9°
Drops below altitude 10° 01:08:34 10° 297° (WNW) 2,964 5.6 -16.6°
Sets 01:11:11 0° 303° (WNW) 3,924 6.3 -16.4°
